Location: �bnet
(46.9957°N, 8.4908°E)
Time: 04:19:09
(UTC+00:00)

S3M - Pass Details

Date: 11 May 2021
Orbit: 948 x 1005 km, 83.0° (Epoch: 23 June)

Event Time Altitude Azimuth Distance (km) Brightness Sun altitude
Rises 19:34:51 0° 184° (S) 3,717 6.7 -7.3°
Reaches altitude 10° 19:37:22 10° 184° (S) 2,769 6.1 -7.6°
Maximum altitude 19:43:45 84° 98° (E) 1,009 4.1 -8.5°
Drops below altitude 10° 19:50:06 10° 10° (N) 2,759 6.8 -9.3°
Sets 19:52:37 0° 10° (N) 3,704 7.5 -9.7°
